EW6287 Weather Reports


time (UTC)temp
F
wind
direction
speed
knots
gust
knots
rain 1hr
in
rain 24hr
in
rain mn
in
humidity
%
barometer
mb
20260904004553 66 0.0 0.0 0.00 0.00 0.00 91 1007.2
20260904003039 66 0.0 0.0 0.00 0.00 0.00 91 1007.3
20260904001539 67 0.0 0.0 0.00 0.00 0.00 92 1006.9
20260904000038 67 0.0 0.0 0.00 0.00 0.00 93 1006.8
20260903234538 68 0.0 0.0 0.00 0.00 0.00 93 1006.9
20260903233036 68 0.0 0.0 0.00 0.00 0.00 91 1007.5
20260903231537 68 0.0 0.0 0.00 0.00 0.00 90 1007.2
20260903230037 68 0.0 0.0 0.00 0.00 0.00 88 1007.4
20260903224537 73 0.0 0.0 0.00 0.00 0.00 78 1006.9
20260903223033 79 0.0 0.0 0.00 0.00 0.00 74 1006.4
20260903221545 79 0.0 0.0 0.00 0.00 0.00 73 1005.0
20260903220032 80 0.0 0.0 0.00 0.00 0.00 72 1005.0
20260903214534 80 0.0 0.0 0.00 0.00 0.00 71 1004.9
20260903213034 81 0.0 0.0 0.00 0.00 0.00 70 1004.9
20260903211530 82 0.0 0.0 0.00 0.00 0.00 68 1005.0
20260903210029 81 0.0 0.0 0.00 0.00 0.00 68 1005.2
20260903204528 81 0.0 0.0 0.00 0.00 0.00 67 1004.9
20260903203034 82 0.0 0.0 0.00 0.00 0.00 65 1005.4
20260903201524 83 0.0 0.0 0.00 0.00 0.00 64 1005.8
20260903200039 83 0.0 0.0 0.00 0.00 0.00 63 1005.7
20260903194536 83 0.0 0.0 0.00 0.00 0.00 63 1006.0
20260903193029 82 0.0 0.0 0.00 0.00 0.00 65 1006.0
20260903191521 82 0.0 0.0 0.00 0.00 0.00 65 1006.1
20260903190017 82 0.0 0.0 0.00 0.00 0.00 65 1006.4
20260903184515 81 0.0 0.0 0.00 0.00 0.00 66 1006.5
20260903183020 80 0.0 0.0 0.00 0.00 0.00 67 1006.3
20260903181516 79 0.0 0.0 0.00 0.00 0.00 69 1006.5
20260903180029 79 0.0 0.0 0.00 0.00 0.00 69 1006.8
20260903174512 80 0.0 0.0 0.00 0.00 0.00 67 1006.9
20260903173012 81 0.0 0.0 0.00 0.00 0.00 66 1007.1
20260903171510 80 0.0 0.0 0.00 0.00 0.00 66 1007.2
20260903170007 79 0.0 0.0 0.00 0.00 0.00 65 1007.3
20260903164504 79 0.0 0.0 0.00 0.00 0.00 67 1007.5
20260903163001 78 0.0 0.0 0.00 0.00 0.00 66 1007.8
20260903161558 77 0.0 0.0 0.00 0.00 0.00 65 1007.8
20260903160107 76 0.0 0.0 0.00 0.00 0.00 64 1007.8
20260903154554 75 0.0 0.0 0.00 0.00 0.00 66 1008.3
20260903153051 73 0.0 0.0 0.00 0.00 0.00 67 1008.1
20260903151553 73 0.0 0.0 0.00 0.00 0.00 67 1008.2
20260903150054 73 0.0 0.0 0.00 0.00 0.00 67 1008.7
20260903144548 71 0.0 0.0 0.00 0.00 0.00 69 1008.7
20260903143041 70 0.0 0.0 0.00 0.00 0.00 73 1008.6
20260903141538 68 0.0 0.0 0.00 0.00 0.00 76 1008.9
20260903140023 67 0.0 0.0 0.00 0.00 0.00 77 1009.2
20260903134514 66 0.0 0.0 0.00 0.00 0.00 78 1009.6
20260903133044 66 0.0 0.0 0.00 0.00 0.00 79 1009.3
20260903131544 65 0.0 0.0 0.00 0.00 0.00 81 1009.4
20260903130105 65 0.0 0.0 0.00 0.00 0.00 81 1009.4
20260903124542 65 0.0 0.0 0.00 0.00 0.00 81 1009.4
20260903123043 64 0.0 0.0 0.00 0.00 0.00 82 1009.2
20260903121547 64 0.0 0.0 0.00 0.00 0.00 82 1009.7
20260903120042 65 0.0 0.0 0.00 0.00 0.00 83 1009.6
20260903114545 65 0.0 0.0 0.00 0.00 0.00 85 1009.5
20260903113043 64 0.0 0.0 0.00 0.00 0.00 85 1009.5
20260903111541 65 0.0 0.0 0.00 0.00 0.00 84 1009.6
20260903110108 65 0.0 0.0 0.00 0.00 0.00 83 1009.4
20260903104540 65 0.0 0.0 0.00 0.00 0.00 82 1009.4
20260903103040 65 0.0 0.0 0.00 0.00 0.00 82 1009.7
20260903101538 65 0.0 0.0 0.00 0.00 0.00 82 1009.7
20260903100039 64 0.0 0.0 0.00 0.00 0.00 82 1009.9
20260903094550 65 0.0 0.0 0.00 0.00 0.00 82 1009.4
20260903093039 65 0.0 0.0 0.00 0.00 0.00 82 1009.6
20260903091536 65 0.0 0.0 0.00 0.00 0.00 82 1009.4
20260903090035 65 0.0 0.0 0.00 0.00 0.00 81 1009.1
20260903084534 65 0.0 0.0 0.00 0.00 0.00 81 1009.7
20260903083034 65 0.0 0.0 0.00 0.00 0.00 81 1009.7
20260903081540 65 0.0 0.0 0.00 0.00 0.00 80 1009.7
20260903080032 66 0.0 0.0 0.00 0.00 0.00 80 1009.7
20260903074530 66 0.0 0.0 0.00 0.00 0.00 79 1009.9
20260903073030 66 0.0 0.0 0.00 0.00 0.00 79 1009.9
20260903071530 66 0.0 0.0 0.00 0.00 0.00 79 1009.9
20260903070034 67 0.0 0.0 0.00 0.00 0.00 80 1009.9
20260903064526 67 0.0 0.0 0.00 0.00 0.00 79 1010.2
20260903063026 67 0.0 0.0 0.00 0.00 0.00 79 1010.2
20260903061529 67 0.0 0.0 0.00 0.00 0.00 79 1010.1
20260903060023 67 0.0 0.0 0.00 0.00 0.00 81 1010.4
20260903054539 67 0.0 0.0 0.00 0.00 0.00 81 1010.3
20260903053021 67 0.0 0.0 0.00 0.00 0.00 83 1010.5
20260903051518 68 0.0 0.0 0.00 0.00 0.00 84 1010.7
20260903050015 68 0.0 0.0 0.00 0.00 0.00 83 1010.6
20260903044514 68 0.0 0.0 0.00 0.00 0.00 82 1010.6
20260903043013 68 0.0 0.0 0.00 0.00 0.00 83 1010.5
20260903041514 69 0.0 0.0 0.00 0.00 0.00 82 1010.9
20260903040013 69 0.0 0.0 0.00 0.00 0.00 83 1010.7
20260903034513 69 0.0 0.0 0.00 0.00 0.00 82 1010.9
20260903033019 69 0.0 0.0 0.00 0.00 0.00 82 1010.9
20260903031519 69 0.0 0.0 0.00 0.00 0.00 81 1010.9
20260903030035 69 0.0 0.0 0.00 0.00 0.00 81 1010.8
20260903024534 70 0.0 0.0 0.00 0.00 0.00 79 1010.5
20260903023013 70 0.0 0.0 0.00 0.00 0.00 78 1010.8
20260903021512 70 0.0 0.0 0.00 0.00 0.00 76 1010.7
20260903020012 70 0.0 0.0 0.00 0.00 0.00 77 1010.6
20260903014511 71 0.0 0.0 0.00 0.00 0.00 73 1010.2
20260903013011 71 0.0 0.0 0.00 0.00 0.00 69 1010.4
20260903011515 71 0.0 0.0 0.00 0.00 0.00 67 1010.1
20260903010010 71 0.0 0.0 0.00 0.00 0.00 67 1010.1